User: anonymous   Login
Location: Bangkok
(13.7500°N, 100.5170°E)
Time: 15:42:56
(UTC+07:00)
Language:

SPOT 1/Viking Rocket - Orbit

View from above orbital plane
View from above orbital plane
View from above satellite
View from above satellite

Ground track
Ground track

The orbit data is extracted from the following two-line orbital elements,

1 16615U 86019C   16041.35990352  .00000129  00000-0  65059-4 0  9992
2 16615  98.6754 104.7691 0012620  58.9935   1.3657 14.31564948568981
Epoch (UTC): 10 February 2016 08:38:15
Eccentricity: 0.0012620
inclination: 98.6754°
perigee height: 777 km
apogee height: 795 km
right ascension of ascending node: 104.7691°
argument of perigee: 58.9935°
revolutions per day: 14.31564948
mean anomaly at epoch: 1.3657°
orbit number at epoch: 56898

The dashed part of the orbit path shows where the satellite is in the earth's shadow,  

DLR